Regional Weather Roundup
Issued by NWS

Home | Current Version | Previous Version | Text Only | Print | Product List | Glossary Off
Versions: 1 2 3 4 5 6 7 8 9 10 11 12 13 14 15 16 17 18 19 20 21 22 23 24 25 26 27 28 29 30 31 32 33 34 35 36 37 38 39 40 41 42 43 44 45 46 47 48 49 50

000
ASUS45 KBOU 070610
RWRCO

WEATHER ROUNDUP FOR COLORADO
NATIONAL WEATHER SERVICE DENVER/BOULDER CO
1200 AM MDT TUE JUL 07 2015

NOTE: "FAIR" INDICATES FEW OR NO CLOUDS BELOW 12000 FEET WITH NO
SIGNIFICANT WEATHER AND/OR OBSTRUCTIONS TO VISIBILITY.

COZ001>005-013-030-031-070700-
...NORTHWEST COLORADO...

CITY           SKY/WX    TMP DP  RH WIND       PRES   REMARKS
CRAIG          RAIN      58  53  84 SW3       30.29R
HAYDEN         CLOUDY    57  46  67 SW6       30.29R
MEEKER         CLOUDY    60  52  74 NE9       30.26R
MOUNT WERNER   NOT AVBL
STEAMBOAT SPGS CLOUDY    53  52  95 E5        30.31R
WALDEN         MOCLDY    54  46  76 CALM      30.33F
$$

COZ006>008-011-070700-
...WEST CENTRAL VALLEYS...

CITY           SKY/WX    TMP DP  RH WIND       PRES   REMARKS
GRAND JUNCTION CLOUDY    68  54  60 SW3       30.10F
MONTROSE       PTCLDY    68  45  43 CALM      30.19S
EAGLE          MOCLDY    61  54  77 W3        30.25S
RIFLE          LGT RAIN  64  56  75 E8        30.19R
DELTA          PTCLDY    70  50  49 SW3       30.12R
NUCLA          PTCLDY    61  48  63 S5        30.22S
$$

COZ017>023-064>068-070700-
...SOUTHWEST COLORADO...

CITY           SKY/WX    TMP DP  RH WIND       PRES   REMARKS
DURANGO        MOCLDY    62  55  77 CALM      30.24R
CORTEZ         CLEAR     64  51  62 SE3       30.18F
PAGOSA SPRINGS CLOUDY    58  55  87 CALM      30.32R
TELLURIDE      PTCLDY    54  47  77 SE7       30.41F
WOLF CREEK PAS NOT AVBL
$$

COZ009-010-012-014-032>034-037-058>063-070700-
...CENTRAL COLORADO...

CITY           SKY/WX    TMP DP  RH WIND       PRES   REMARKS
ASPEN          MOCLDY    56  46  69 S7        30.30S
BUENA VISTA    CLOUDY    53  49  86 SE8       30.40S
COPPER MTN     CLOUDY    46  41  81 S14       30.60S
BERTHOUD PASS  SNOW      36  28  75 E18G24    30.64F VSB<1/4
COTTONWOOD PAS NOT AVBL
GUNNISON       PTCLDY    59  45  58 N7        30.33S
KREMMLING      CLOUDY    55  50  82 CALM      30.31S
LEADVILLE      CLOUDY    47  47 100 S5        30.47F
MONARCH PASS   FOG       41  39  93 NE15      30.69S VSB<1/4
SALIDA         CLOUDY    55  53  90 CALM      30.45S
SUNLIGHT       CLOUDY    50  45  81 W5        30.54S
WILKERSON PASS FOG       43  41  93 S7        30.60S VSB 1/4
$$

COZ069>075-070700-
...SAN LUIS VALLEY/SANGRE DE CRISTO MOUNTAINS...

CITY           SKY/WX    TMP DP  RH WIND       PRES   REMARKS
ALAMOSA        CLOUDY    55  52  89 SW8       30.33F
LA VETA PASS   RAIN      43  41  93 MISG      30.50S VSB 1/2
SAGUACHE       PTCLDY    52  52 100 CALM      30.38R
$$

COZ035-036-038>040-070700-
...NORTHERN COLORADO FRONT RANGE...

CITY           SKY/WX    TMP DP  RH WIND       PRES   REMARKS
DENVER INTL AP CLOUDY    61  54  77 E7        30.30S HAZE
DMNS CITY PARK   N/A     60  55  82 E6G16     30.30S
AURORA         MOCLDY    59  56  89 E5        30.32F
FRONT RANGE AP NOT AVBL
ERIE MUNI ARPT CLOUDY    60  58  94 CALM      30.29S FOG
BOULDER MUN AP DRIZZLE   59  59 100 CALM      30.30S
CENTENNIAL     CLOUDY    59  54  83 SE10      30.31F HAZE
BROOMFIELD       N/A     59  57  94 CALM      30.32S FOG
FORT COLLINS   CLOUDY    59  57  94 S5        30.30S
LONGMONT       CLOUDY    61  59  93 CALM      30.30F FOG
$$

COZ041-046-047-076>085-087-088-070700-
...PIKES PEAK/PALMER DIVIDE AND SOUTHERN FOOTHILLS...

CITY           SKY/WX    TMP DP  RH WIND       PRES   REMARKS
COLO. SPRINGS  LGT RAIN  57  54  89 E6        30.36S FOG
A. F. ACADEMY  DRIZZLE   55  55 100 SE5       30.35F FOG
ELLICOTT       CLOUDY   N/A N/A N/A E8        30.34S HAZE
FALCON         DRIZZLE   55  54  97 CALM      30.39S
FORT CARSON    CLOUDY    57  57 100 CALM      30.33S
LIMON          CLOUDY    58  52  80 E6        30.31S HAZE
MONUMENT HILL  CLOUDY    52  52 100 MISG      30.38F FOG
TRINIDAD       CLOUDY    61  56  83 NE3       30.30R
$$

COZ042>045-048>051-090-091-070700-
...NORTHEAST COLORADO...

CITY           SKY/WX    TMP DP  RH WIND       PRES   REMARKS
GREELEY ARPT   CLOUDY    63  54  72 SE7       30.28F
AKRON          CLOUDY    62  51  67 E8        30.28S HAZE
BURLINGTON     CLOUDY    61  53  75 NE6       30.26R HAZE
WRAY           MOCLDY    64  52  63 NE5       30.24F
STERLING       CLOUDY    64  54  68 E5          N/A  HAZE
HOLYOKE        CLOUDY    63  54  72 E3        30.25S
FORT MORGAN    CLOUDY    62  52  68 E6        30.28S
$$

COZ086-089-092>099-070700-
...SOUTHEAST COLORADO...

CITY           SKY/WX    TMP DP  RH WIND       PRES   REMARKS
PUEBLO         CLOUDY    67  59  75 CALM      30.27R
LA JUNTA       CLOUDY    68  54  60 NE12      30.25R HAZE
LAMAR          CLOUDY    68  53  58 E12       30.21R HAZE
SPRINGFIELD      N/A     64  56  75 NE13      30.23R
$$


USA.gov is the U.S. government's official web portal to all federal, state and local government web resources and services.